AFL001 UIII-UNNT

Flight info

Callsign AFL001
Flight time N/A
Altitude 38000
Route BOGRA A815 TUTEK M97 LIBZI R497 LONKA A822 LAPAK B151 KESED B926 NATIR NATIR1K
Aircraft A339/H-SADE1E2E3GHIJ3J5M1P2RWXY/LB2D1

Departure

Time 2026-05-07 12:03
Airport Irkutsk International Airport (UIII)

Arrival

Time N/A
Airport Novosibirsk Tolmachevo Airport (UNNT)
Time Latitude Longitude Altitude Speed Heading
2026-05-07 11:42 52.27109 104.36372 1608 ft 0 kts 21°
2026-05-07 11:58 52.27115 104.36375 1608 ft 3 kts 21°
2026-05-07 11:59 52.27140 104.36404 1607 ft 5 kts 64°
2026-05-07 11:59 52.27136 104.36475 1607 ft 7 kts 106°
2026-05-07 11:59 52.27121 104.36554 1608 ft 7 kts 107°
2026-05-07 11:59 52.27101 104.36653 1609 ft 11 kts 109°
2026-05-07 12:00 52.27072 104.36781 1613 ft 13 kts 111°
2026-05-07 12:00 52.27038 104.36932 1614 ft 14 kts 109°
2026-05-07 12:00 52.27003 104.37087 1615 ft 14 kts 111°
2026-05-07 12:00 52.27013 104.37239 1614 ft 14 kts 61°
2026-05-07 12:01 52.27078 104.37389 1609 ft 17 kts 54°
2026-05-07 12:01 52.27108 104.37457 1607 ft 0 kts 53°
2026-05-07 12:01 52.27117 104.37478 1606 ft 5 kts 54°
2026-05-07 12:02 52.27148 104.37550 1604 ft 10 kts 54°
2026-05-07 12:02 52.27186 104.37658 1601 ft 10 kts 87°
2026-05-07 12:02 52.27169 104.37762 1604 ft 8 kts 111°
2026-05-07 12:02 52.27097 104.38028 1609 ft 54 kts 113°
2026-05-07 12:03 52.26864 104.38914 1632 ft 113 kts 114°
2026-05-07 12:03 52.26482 104.40359 1652 ft 163 kts 112°
2026-05-07 12:03 52.25992 104.42208 1867 ft 185 kts 111°
2026-05-07 12:03 52.25478 104.44171 2388 ft 189 kts 111°
2026-05-07 12:04 52.25007 104.46218 2798 ft 202 kts 95°
2026-05-07 12:04 52.25278 104.48425 3205 ft 202 kts 47°
2026-05-07 12:04 52.26422 104.49651 3577 ft 203 kts
2026-05-07 12:04 52.27784 104.49264 3971 ft 209 kts 332°
2026-05-07 12:05 52.29123 104.48086 4335 ft 225 kts 328°
2026-05-07 12:05 52.30530 104.46777 4680 ft 242 kts 329°
2026-05-07 12:05 52.32039 104.45441 5203 ft 252 kts 330°
2026-05-07 12:05 52.33598 104.44121 5916 ft 255 kts 330°
2026-05-07 12:06 52.35161 104.42831 6604 ft 257 kts 331°
2026-05-07 12:06 52.36778 104.41517 7291 ft 260 kts 331°
2026-05-07 12:06 52.38401 104.40211 7978 ft 263 kts 332°
2026-05-07 12:06 52.40044 104.38898 8671 ft 266 kts 332°
2026-05-07 12:07 52.41721 104.37560 9373 ft 269 kts 332°
2026-05-07 12:07 52.43409 104.36218 10068 ft 272 kts 332°
2026-05-07 12:07 52.45120 104.34856 10496 ft 286 kts 332°
2026-05-07 12:07 52.46981 104.33375 10813 ft 304 kts 332°
2026-05-07 12:08 52.48925 104.31828 11165 ft 320 kts 332°
2026-05-07 12:08 52.50931 104.30235 11787 ft 326 kts 332°
2026-05-07 12:08 52.52985 104.28602 12537 ft 328 kts 332°
2026-05-07 12:08 52.55029 104.26974 13286 ft 330 kts 333°
2026-05-07 12:09 52.57117 104.25307 14048 ft 332 kts 333°
2026-05-07 12:09 52.59179 104.23659 14785 ft 334 kts 333°
2026-05-07 12:09 52.61251 104.22001 15508 ft 336 kts 334°
2026-05-07 12:09 52.63344 104.20325 16221 ft 338 kts 334°
2026-05-07 12:10 52.65460 104.18628 16915 ft 340 kts 334°
2026-05-07 12:10 52.67594 104.16916 17422 ft 348 kts 335°
2026-05-07 12:10 52.69805 104.15141 18007 ft 353 kts 335°
2026-05-07 12:10 52.72009 104.13369 18666 ft 356 kts 335°
2026-05-07 12:11 52.74224 104.11586 19302 ft 359 kts 336°
2026-05-07 12:11 52.76464 104.09781 19907 ft 362 kts 336°
2026-05-07 12:11 52.78728 104.07954 20487 ft 366 kts 337°
2026-05-07 12:11 52.81017 104.06107 21044 ft 369 kts 337°
2026-05-07 12:12 52.83349 104.04222 21583 ft 373 kts 338°
2026-05-07 12:12 52.85675 104.02340 22094 ft 377 kts 338°
2026-05-07 12:12 52.88049 104.00417 22589 ft 380 kts 338°
2026-05-07 12:12 52.90431 103.98486 23062 ft 384 kts 339°
2026-05-07 12:13 52.92839 103.96529 23517 ft 388 kts 339°
2026-05-07 12:13 52.95296 103.94532 23962 ft 392 kts 339°
2026-05-07 12:13 52.97741 103.92542 24385 ft 396 kts 339°
2026-05-07 12:13 53.00225 103.90517 24795 ft 400 kts 339°
2026-05-07 12:14 53.02737 103.88467 25197 ft 404 kts 340°
2026-05-07 12:14 53.05275 103.86392 25580 ft 409 kts 340°
2026-05-07 12:14 53.07837 103.84295 25949 ft 413 kts 340°
2026-05-07 12:14 53.09287 103.83106 26152 ft 415 kts 340°
2026-05-07 12:15 53.11890 103.80971 26518 ft 419 kts 340°
2026-05-07 12:15 53.14521 103.78809 26872 ft 423 kts 340°
2026-05-07 12:15 53.17205 103.76653 27214 ft 427 kts 341°
2026-05-07 12:15 53.19896 103.74551 27547 ft 431 kts 342°
2026-05-07 12:16 53.22627 103.72427 27874 ft 435 kts 342°
2026-05-07 12:16 53.25373 103.70289 28191 ft 439 kts 342°
2026-05-07 12:16 53.28194 103.68085 28506 ft 443 kts 342°
2026-05-07 12:16 53.31005 103.65883 28809 ft 447 kts 342°
2026-05-07 12:17 53.33823 103.63670 29102 ft 452 kts 342°
2026-05-07 12:17 53.36715 103.61395 29394 ft 456 kts 342°
2026-05-07 12:17 53.39594 103.59126 29677 ft 460 kts 342°
2026-05-07 12:17 53.42522 103.56805 29955 ft 465 kts 341°
2026-05-07 12:18 53.45320 103.53990 30195 ft 478 kts 331°
2026-05-07 12:18 53.47897 103.50301 30450 ft 491 kts 321°
2026-05-07 12:18 53.50108 103.45840 30703 ft 503 kts 310°
2026-05-07 12:18 53.51860 103.40686 31006 ft 513 kts 299°
2026-05-07 12:19 53.53062 103.35020 31363 ft 519 kts 288°
2026-05-07 12:19 53.53912 103.29058 31727 ft 520 kts 284°
2026-05-07 12:19 53.54668 103.23074 32066 ft 521 kts 283°
2026-05-07 12:19 53.55408 103.17110 32399 ft 522 kts 283°
2026-05-07 12:20 53.56157 103.11183 32733 ft 523 kts 283°
2026-05-07 12:20 53.56936 103.05128 33075 ft 523 kts 283°
2026-05-07 12:20 53.57716 102.99149 33411 ft 524 kts 283°
2026-05-07 12:20 53.58492 102.93233 33741 ft 524 kts 283°
2026-05-07 12:21 53.59287 102.87173 34076 ft 524 kts 282°
2026-05-07 12:21 53.60067 102.81192 34425 ft 524 kts 282°
2026-05-07 12:21 53.60837 102.75262 34814 ft 522 kts 282°
2026-05-07 12:21 53.61608 102.69300 35231 ft 520 kts 282°
2026-05-07 12:22 53.62373 102.63367 35648 ft 517 kts 282°
2026-05-07 12:22 53.63133 102.57455 36047 ft 514 kts 282°
2026-05-07 12:22 53.63885 102.51587 36389 ft 513 kts 282°
2026-05-07 12:22 53.64625 102.45781 36658 ft 513 kts 282°
2026-05-07 12:23 53.65381 102.39841 36895 ft 514 kts 282°
2026-05-07 12:23 53.66116 102.34029 37121 ft 515 kts 281°
2026-05-07 12:23 53.66862 102.28104 37340 ft 515 kts 281°
2026-05-07 12:23 53.67601 102.22191 37561 ft 515 kts 281°
2026-05-07 12:24 53.68327 102.16338 37758 ft 516 kts 281°
2026-05-07 12:24 53.69799 102.04379 37800 ft 525 kts 281°
2026-05-07 12:25 53.71291 101.92177 37802 ft 535 kts 281°
2026-05-07 12:25 53.72792 101.79805 37800 ft 539 kts 281°
2026-05-07 12:26 53.74279 101.67440 37800 ft 539 kts 281°
2026-05-07 12:26 53.75765 101.54967 37800 ft 539 kts 281°
2026-05-07 12:27 53.77235 101.42512 37800 ft 539 kts 281°
2026-05-07 12:27 53.78687 101.30096 37798 ft 539 kts 281°
2026-05-07 12:28 53.80131 101.17643 37800 ft 539 kts 281°
2026-05-07 12:28 53.81551 101.05276 37800 ft 539 kts 281°
2026-05-07 12:29 53.82969 100.92780 37800 ft 539 kts 280°
2026-05-07 12:29 53.84362 100.80351 37800 ft 539 kts 280°
2026-05-07 12:30 53.85748 100.67879 37800 ft 539 kts 280°
2026-05-07 12:30 53.87120 100.55425 37800 ft 539 kts 280°
2026-05-07 12:31 53.88489 100.42876 37800 ft 542 kts 280°
2026-05-07 12:31 53.89843 100.30351 37798 ft 542 kts 279°
2026-05-07 12:32 53.91183 100.17827 37800 ft 542 kts 279°
2026-05-07 12:32 53.92517 100.05222 37800 ft 542 kts 279°
2026-05-07 12:33 53.94479 99.86438 37800 ft 542 kts 279°
2026-05-07 12:33 53.95776 99.73846 37800 ft 542 kts 279°
2026-05-07 12:34 53.97062 99.61234 37800 ft 542 kts 279°
2026-05-07 12:34 53.98332 99.48653 37799 ft 542 kts 279°
2026-05-07 12:35 53.99591 99.36038 37799 ft 542 kts 279°
2026-05-07 12:35 54.00841 99.23396 37799 ft 542 kts 278°
2026-05-07 12:36 54.02069 99.10825 37800 ft 542 kts 278°
2026-05-07 12:36 54.03358 98.98226 37800 ft 542 kts 281°
2026-05-07 12:37 54.05312 98.85860 37800 ft 542 kts 289°
2026-05-07 12:37 54.08112 98.73979 37799 ft 542 kts 296°
2026-05-07 12:38 54.11665 98.62685 37800 ft 541 kts 302°
2026-05-07 12:38 54.15424 98.51638 37800 ft 541 kts 302°
2026-05-07 12:39 54.19163 98.40537 37801 ft 541 kts 302°
2026-05-07 12:39 54.22858 98.29421 37798 ft 541 kts 301°
2026-05-07 12:40 54.26555 98.18218 37800 ft 541 kts 301°
2026-05-07 12:40 54.30207 98.07101 37800 ft 541 kts 301°
2026-05-07 12:41 54.33879 97.95871 37800 ft 541 kts 301°
2026-05-07 12:41 54.37532 97.84662 37800 ft 541 kts 301°
2026-05-07 12:42 54.41183 97.73426 37800 ft 541 kts 301°
2026-05-07 12:42 54.44830 97.62151 37800 ft 541 kts 301°
2026-05-07 12:43 54.48468 97.50851 37800 ft 541 kts 301°
2026-05-07 12:43 54.52084 97.39566 37800 ft 541 kts 301°
2026-05-07 12:44 54.55701 97.28228 37798 ft 541 kts 300°
2026-05-07 12:44 54.59303 97.16884 37800 ft 541 kts 300°
2026-05-07 12:45 54.62894 97.05518 37800 ft 541 kts 300°
2026-05-07 12:45 54.66473 96.94143 37800 ft 541 kts 300°
2026-05-07 12:46 54.70046 96.82724 37800 ft 541 kts 300°
2026-05-07 12:46 54.73336 96.71051 37800 ft 542 kts 294°
2026-05-07 12:47 54.75850 96.58737 37800 ft 543 kts 286°
2026-05-07 12:47 54.77561 96.46089 37800 ft 542 kts 281°
2026-05-07 12:48 54.79042 96.33280 37798 ft 542 kts 280°
2026-05-07 12:48 54.80514 96.20535 37800 ft 542 kts 281°
2026-05-07 12:49 54.81998 96.07735 37800 ft 542 kts 281°
2026-05-07 12:49 54.83473 95.94954 37800 ft 542 kts 281°
2026-05-07 12:50 54.84938 95.82164 37800 ft 542 kts 281°
2026-05-07 12:50 54.86393 95.69325 37800 ft 542 kts 281°
2026-05-07 12:51 54.87828 95.56539 37799 ft 542 kts 281°
2026-05-07 12:51 54.89252 95.43718 37799 ft 542 kts 281°
2026-05-07 12:52 54.90659 95.30939 37797 ft 542 kts 279°
2026-05-07 12:52 54.92057 95.18092 37800 ft 542 kts 279°
2026-05-07 12:53 54.93449 95.05167 37800 ft 542 kts 279°
2026-05-07 12:53 54.94820 94.92303 37800 ft 542 kts 279°
2026-05-07 12:54 54.96176 94.79444 37800 ft 542 kts 279°
2026-05-07 12:54 54.97515 94.66616 37800 ft 542 kts 279°
2026-05-07 12:55 54.98844 94.53734 37799 ft 542 kts 279°
2026-05-07 12:55 55.00166 94.40791 37799 ft 542 kts 279°
2026-05-07 12:56 55.01467 94.27911 37798 ft 542 kts 279°
2026-05-07 12:56 55.02757 94.14994 37800 ft 542 kts 279°
2026-05-07 12:57 55.04025 94.02155 37800 ft 542 kts 279°
2026-05-07 12:57 55.05293 93.89167 37800 ft 542 kts 279°
2026-05-07 12:58 55.06540 93.76251 37800 ft 542 kts 279°
2026-05-07 12:58 55.07769 93.63380 37799 ft 542 kts 279°
2026-05-07 12:59 55.08994 93.50371 37799 ft 542 kts 278°
2026-05-07 12:59 55.10192 93.37467 37798 ft 542 kts 278°
2026-05-07 13:00 55.11388 93.24455 37798 ft 542 kts 278°
2026-05-07 13:00 55.12565 93.11485 37800 ft 542 kts 278°
2026-05-07 13:01 55.13725 92.98556 37800 ft 542 kts 278°
2026-05-07 13:01 55.14875 92.85577 37800 ft 542 kts 278°
2026-05-07 13:02 55.16013 92.72590 37800 ft 542 kts 278°
2026-05-07 13:02 55.17137 92.59589 37801 ft 542 kts 278°
2026-05-07 13:03 55.17846 92.51278 37801 ft 542 kts 278°